Location: Unspecified
(0.0000°N, 0.0000°E)
Time: 15:37:26
(UTC+02:00)

Ariane H10 - Visible Passes

Search period start: 26 August 2016 00:00
Search period end: 05 September 2016 00:00
Orbit: 285 x 24089 km, 3.9° (Epoch: 25 August)

Date Brightness Start Highest point End Pass type
(mag) Time Alt. Az. Time Alt. Az. Time Alt. Az.
26 Aug 7.1 07:04:18 12° W 09:16:03 34° W 12:48:15 10° E visible
27 Aug 8.6 04:03:22 70° W 05:25:09 87° NNW 09:34:33 10° E visible
28 Aug 6.4 00:11:29 10° W 01:02:24 44° E 05:59:55 10° E visible
28 Aug 3.6 21:02:19 10° WSW 21:05:48 62° S 21:13:08 22° E visible
29 Aug 8.6 05:01:07 50° W 07:02:04 70° W 10:36:27 10° E visible
30 Aug 7.2 02:00:06 64° E 02:00:06 64° E 07:12:58 10° E visible
30 Aug 4.6 22:01:27 10° WSW 22:06:39 72° S 22:10:11 52° ESE visible
31 Aug 7.9 05:58:43 31° W 08:05:20 52° W 11:37:08 10° E visible
01 Sep 8.6 02:57:37 85° E 02:57:37 85° E 08:19:32 10° E visible
01 Sep 5.4 23:00:32 10° W 23:56:30 24° E 04:14:45 10° E visible
02 Sep 7.2 06:56:09 15° W 09:05:17 35° W 12:36:57 10° E visible
03 Sep 8.6 03:54:58 73° W 05:02:31 87° NNW 09:22:51 10° E visible
03 Sep 6.2 23:59:44 10° W 00:53:47 42° E 05:47:05 10° E visible
04 Sep 3.6 20:50:23 10° WSW 20:53:46 62° S 21:02:21 19° E visible
